Theta_e
313 312 316 319 321 322 326 329 328 334 331 323 326 327 322 326 332 331 330 332 334 331 327 331 334 334 335 337 338 338 336 338 341 340 342 339 336 338 337 332 328 325 325 326 325 322 324 330 331 330 331 332 334 334 333 330 331 334 334 332 331 332 332 332 333 334 333 334 334 335 334 333 332 330 331 333 334 333 333 333 332 332 332 332 332 332 332 331 332 331 332 332 333 333 333 333 332
313 312 320 323 323 320 328 335 329 333 332 323 326 327 322 326 330 332 332 332 333 326 327 333 335 336 336 337 338 340 340 337 336 338 338 336 338 339 336 331 327 325 326 324 322 320 321 327 330 331 331 332 333 334 333 330 332 334 333 332 331 332 332 332 333 334 334 334 335 335 335 334 332 330 330 331 333 333 333 334 333 332 331 332 332 332 331 331 331 331 332 332 333 333 332 332 332
313 313 321 324 323 323 331 336 330 327 322 323 333 329 320 324 329 329 330 330 328 324 329 333 334 333 336 343 341 342 341 336 336 338 338 338 339 337 335 330 327 325 325 323 321 320 320 326 331 331 330 331 333 334 332 331 332 333 333 333 331 331 332 332 333 334 334 334 335 334 334 334 332 332 332 330 331 332 333 333 333 333 331 331 332 331 330 331 332 332 331 331 332 333 332 332 331
313 317 322 324 329 333 334 332 335 326 318 324 329 326 323 326 329 327 329 330 327 327 328 329 332 329 339 350 341 342 341 336 337 338 338 338 338 337 334 329 327 325 324 324 321 320 320 327 331 330 330 332 333 333 332 331 332 334 334 333 332 332 332 332 333 332 333 334 334 333 333 333 332 332 333 331 330 331 332 331 332 332 332 331 330 330 330 331 332 332 332 331 331 332 332 332 331
316 321 321 325 332 336 330 325 331 324 321 329 323 325 328 326 330 329 329 329 327 329 326 328 333 330 338 343 338 344 342 336 337 337 338 338 338 337 332 329 327 325 325 324 321 319 319 326 330 330 332 332 333 333 333 332 332 334 334 333 332 332 332 331 332 331 332 333 333 333 332 332 332 332 333 332 331 331 331 331 332 333 333 332 331 331 331 332 332 332 332 331 331 331 331 331 330
320 321 321 322 324 328 328 322 326 325 328 332 324 330 329 325 331 331 329 327 329 330 329 333 335 336 340 338 336 340 337 337 337 336 338 337 338 336 331 329 327 325 325 324 322 319 318 323 330 332 332 332 332 333 333 331 331 333 333 333 332 332 331 330 330 330 331 332 332 331 331 331 331 332 332 332 331 331 332 332 332 332 332 332 331 331 331 331 332 332 331 330 331 330 330 330 328
321 322 327 326 323 328 331 326 329 332 328 325 324 330 327 327 329 330 330 327 329 328 332 337 336 342 342 337 337 336 334 336 336 337 339 337 338 334 331 329 328 326 325 325 322 320 318 319 327 331 331 331 332 333 333 331 331 333 333 333 332 332 331 330 330 329 330 331 331 329 328 329 330 331 331 331 330 331 332 332 332 332 332 331 331 331 331 331 331 331 330 330 329 329 329 329 328
321 323 330 331 329 329 328 326 331 333 323 319 324 327 325 328 328 330 331 328 329 328 330 331 333 342 337 338 343 337 335 335 336 338 338 337 337 333 331 330 330 327 326 325 323 321 319 317 322 327 329 330 331 333 333 331 331 332 332 333 332 332 331 330 330 329 329 330 330 329 328 327 328 329 330 329 330 332 332 332 332 331 332 331 330 330 331 330 330 329 329 328 327 328 328 327 327
321 322 328 329 328 326 326 325 325 327 322 322 325 325 326 326 327 330 330 327 327 329 327 326 330 338 337 341 344 337 335 335 337 339 337 338 336 333 333 333 332 329 326 325 324 322 320 317 318 324 328 330 331 332 333 332 332 333 332 332 333 332 331 330 329 329 328 329 330 329 329 328 327 329 329 329 329 330 330 331 331 330 330 330 330 329 329 329 329 328 327 326 326 326 326 325 325
322 324 328 329 325 322 325 327 326 325 319 323 326 325 327 325 325 326 329 328 326 329 327 330 336 339 339 340 340 337 335 335 338 338 338 338 336 336 336 335 334 331 327 326 325 323 322 319 317 321 327 330 330 331 332 332 331 332 332 333 333 332 331 329 329 329 328 329 330 329 329 329 330 330 330 330 330 329 329 330 331 330 330 330 330 329 329 329 328 327 326 325 326 325 325 325 324
327 327 328 326 324 320 323 329 333 332 319 321 325 324 325 323 324 323 327 327 325 329 326 335 343 338 339 340 339 337 334 336 338 338 338 338 337 337 337 336 336 333 329 326 325 324 323 320 318 319 323 328 328 328 331 332 331 331 332 333 333 332 331 328 327 327 328 328 329 330 329 329 331 330 330 330 331 331 330 331 331 331 330 329 329 329 329 328 328 326 325 325 326 325 324 324 324
329 330 333 328 327 323 325 330 334 333 319 321 325 323 323 321 323 322 325 325 324 328 325 333 341 338 341 341 339 336 334 336 337 339 338 338 338 337 337 337 337 334 330 328 327 325 324 323 320 318 320 324 323 325 331 332 330 330 332 332 331 331 330 328 326 326 326 325 328 330 330 330 329 329 329 329 329 330 330 329 329 330 330 329 329 329 329 328 328 326 325 325 325 324 324 324 323
333 334 335 329 331 330 327 328 329 326 318 322 324 322 322 320 322 322 324 326 325 327 324 327 334 339 342 339 339 335 334 335 336 339 337 338 338 338 338 337 337 335 331 328 328 326 326 325 323 319 319 321 320 322 328 330 329 329 331 331 331 331 330 328 327 325 324 323 325 327 328 328 328 327 326 327 328 329 329 329 329 329 329 329 328 329 328 327 326 325 325 325 324 324 324 323 322
333 337 335 327 330 332 329 325 324 321 319 323 321 320 321 320 321 320 324 326 325 325 322 327 332 341 342 336 339 337 335 335 336 337 335 337 338 338 338 338 338 334 331 329 329 328 327 326 325 323 320 319 318 319 323 325 326 328 330 330 331 330 330 329 327 326 324 323 323 324 324 325 326 326 325 326 327 328 328 328 328 329 328 328 328 328 327 327 325 325 325 324 324 323 323 322 322
327 339 338 329 326 326 326 323 322 320 320 323 319 320 321 318 319 321 324 326 325 321 319 324 329 337 341 339 342 336 335 334 335 335 334 336 337 338 338 338 337 335 332 330 330 329 328 327 326 325 323 320 318 318 319 321 322 325 328 329 330 329 328 328 327 326 325 324 322 323 323 323 324 324 324 325 325 326 326 327 327 327 327 327 327 327 327 326 325 325 325 324 323 323 322 322 321
331 342 333 328 328 324 325 324 322 320 322 324 318 321 322 316 318 321 320 322 322 322 326 326 323 328 337 342 342 334 334 335 335 335 335 337 338 338 338 338 337 335 333 330 330 330 329 329 327 326 325 323 320 318 318 319 320 322 324 326 328 327 328 327 327 326 325 324 322 322 323 323 324 323 323 323 324 325 324 325 326 326 327 327 326 326 326 325 325 325 325 324 323 322 322 322 321
332 337 329 328 330 325 326 325 320 321 326 324 318 322 323 317 317 317 317 321 322 328 337 332 326 332 335 336 335 333 335 335 335 335 335 337 338 338 337 337 335 334 332 331 331 330 330 330 329 328 326 326 323 321 319 318 319 319 320 322 322 324 325 326 325 324 323 323 321 320 322 323 323 323 323 322 323 323 323 324 325 326 326 326 326 326 326 325 325 326 325 324 323 322 322 322 322
325 329 328 327 330 329 330 327 321 323 326 322 320 322 322 319 318 317 320 326 325 331 337 334 335 335 331 331 332 335 336 334 335 334 334 336 338 337 337 336 335 334 333 332 332 331 331 330 330 329 328 327 326 324 321 319 319 319 319 319 320 320 322 322 322 321 319 319 318 319 322 323 322 322 322 322 322 322 322 323 324 324 324 324 324 325 324 324 325 325 325 324 323 322 321 322 322
327 331 326 328 335 332 325 321 318 321 323 321 320 321 321 320 319 318 323 325 326 333 336 336 343 338 331 333 334 335 335 334 334 333 333 334 336 337 336 336 336 336 335 335 333 332 332 331 331 330 330 328 327 326 323 321 319 319 319 319 319 319 320 320 319 317 317 317 317 318 320 321 321 321 321 321 321 321 322 322 322 323 323 323 323 323 323 322 323 325 325 324 324 322 321 321 322
327 328 323 332 336 328 319 315 315 318 320 320 320 320 321 320 318 318 323 324 324 332 339 342 346 338 335 334 333 334 334 334 334 333 333 332 335 336 336 337 336 337 337 337 335 333 332 332 332 331 331 330 329 328 326 324 321 320 320 320 320 319 319 318 317 317 320 322 321 320 320 320 320 320 320 320 320 320 321 322 322 321 321 321 321 321 321 321 322 324 325 325 324 323 322 321 322
320 321 324 331 326 320 319 315 314 316 317 319 319 320 320 318 317 317 321 324 323 325 334 343 343 336 335 334 332 333 333 333 333 333 332 332 334 335 336 337 337 337 337 338 337 336 334 333 333 333 332 331 331 330 328 326 324 322 321 320 320 319 319 317 316 320 324 324 324 323 322 322 321 320 319 318 318 317 318 320 321 321 321 321 320 319 320 320 320 321 323 324 324 324 323 322 322
317 318 324 326 319 316 319 317 316 316 316 318 319 320 319 317 316 318 321 323 322 320 325 335 337 334 334 333 333 332 332 332 332 333 332 332 332 333 336 336 337 337 338 338 338 337 336 336 336 335 333 332 332 332 331 329 326 325 324 323 322 321 320 318 317 321 325 325 325 325 324 324 323 321 319 317 316 315 315 316 318 319 319 319 319 319 318 318 318 319 321 324 324 323 322 322 322
319 319 320 321 317 315 318 318 317 316 317 319 319 319 318 317 316 316 320 320 320 319 323 333 335 333 334 333 332 333 332 331 332 332 332 332 332 333 334 335 337 337 338 338 338 338 337 337 337 336 335 334 334 334 334 332 329 327 326 325 324 323 322 320 318 322 325 325 325 325 324 324 323 322 320 317 317 316 314 313 314 315 315 316 318 318 317 317 318 318 320 323 322 322 321 321 321
317 318 318 318 315 315 317 317 316 317 319 319 317 318 318 319 319 316 318 320 320 316 320 331 333 332 333 333 332 333 332 332 332 332 332 332 332 333 333 335 336 337 337 338 338 338 337 338 338 337 337 335 335 335 335 334 332 329 328 327 326 325 324 324 322 323 325 326 325 324 324 324 324 323 319 316 317 318 316 315 315 315 315 314 316 318 317 316 317 318 321 322 321 321 322 321 321
320 319 317 316 315 316 316 315 316 316 317 318 317 318 318 318 318 316 317 318 319 315 319 331 333 332 333 333 333 332 332 332 331 332 332 332 332 333 333 334 335 336 336 337 337 337 337 338 337 337 337 336 336 335 335 335 333 331 329 329 328 327 326 326 325 325 325 325 325 325 324 324 325 323 318 314 317 320 318 318 319 318 317 315 315 318 317 316 317 319 321 321 320 321 322 322 322
324 322 317 314 315 316 314 314 315 315 315 316 318 318 316 316 314 316 318 317 319 316 323 335 334 333 334 333 333 332 331 332 331 332 332 332 333 332 333 333 334 335 335 336 337 337 337 337 337 337 337 337 336 336 336 335 335 333 331 332 330 328 327 327 327 326 326 325 325 325 325 325 326 323 317 313 316 321 321 320 320 320 320 317 315 316 316 315 315 318 319 319 319 320 321 321 322
320 318 314 313 314 315 314 314 314 315 314 315 318 317 315 315 314 317 318 316 321 319 326 335 335 335 334 333 333 332 332 332 332 332 332 332 332 332 333 333 333 334 335 335 335 336 336 336 337 337 337 337 337 337 337 336 336 334 333 333 331 330 329 328 327 327 327 326 326 326 326 326 325 323 319 314 316 322 323 321 320 320 320 319 316 315 315 313 313 314 316 317 318 318 319 320 321
315 315 315 314 314 314 313 314 315 314 313 315 317 315 314 315 315 319 317 316 324 325 328 334 336 335 334 334 333 331 331 332 332 332 332 332 332 332 332 332 333 333 334 334 335 335 336 336 336 337 337 337 337 337 337 336 336 335 334 333 332 331 330 329 328 328 328 327 328 327 326 326 325 324 322 320 319 321 323 322 321 321 320 319 317 315 314 312 312 312 313 316 317 318 319 319 320
314 316 316 316 314 314 314 313 315 314 313 315 316 315 314 315 316 318 317 317 326 328 329 333 335 335 334 334 333 331 331 331 332 331 332 332 332 332 332 332 333 333 333 334 334 334 335 336 336 336 337 336 336 336 337 336 336 335 334 333 333 332 331 330 329 328 328 328 328 327 327 327 326 325 324 323 322 322 322 322 322 321 321 320 319 317 315 313 313 312 312 314 317 317 318 319 319
314 315 316 319 315 316 317 313 314 314 313 315 314 316 317 316 315 315 316 318 325 329 328 331 333 334 334 333 333 332 330 330 331 331 332 332 332 332 332 332 332 333 333 333 334 334 334 335 336 336 336 336 336 336 336 336 336 335 334 334 334 333 332 331 330 329 329 328 328 328 327 327 327 326 325 324 323 323 322 322 322 321 322 321 320 319 317 315 314 313 312 314 316 316 317 318 318
314 312 315 319 317 319 319 312 314 314 313 314 312 315 318 317 315 314 315 317 324 330 327 327 329 331 333 333 332 332 330 329 330 331 332 332 332 332 332 332 332 333 333 333 333 334 333 334 335 336 336 336 336 336 336 336 336 335 334 334 334 334 333 331 331 329 329 329 328 328 328 327 327 327 326 325 324 324 323 323 322 321 322 322 321 320 318 317 315 314 314 314 315 316 316 317 318
314 312 314 316 316 321 321 313 314 315 313 313 311 314 317 316 316 314 314 315 320 326 326 325 326 327 329 331 331 331 330 328 329 331 331 331 332 332 332 332 333 333 333 333 333 333 333 333 333 335 335 336 336 336 336 336 336 335 334 334 334 334 333 332 331 330 330 329 329 328 328 328 327 327 327 326 325 324 324 324 323 323 322 322 321 320 319 317 316 316 316 315 315 315 316 317 317
314 313 316 318 315 318 318 313 314 315 314 312 312 315 317 316 315 313 312 313 315 319 322 322 322 323 325 328 329 330 329 329 329 329 330 331 332 332 333 333 333 333 333 333 333 333 333 333 333 333 334 336 335 335 334 335 335 334 335 335 334 335 334 334 332 331 330 330 329 329 328 328 328 328 327 327 325 325 324 324 324 324 323 322 321 320 319 318 317 318 317 316 316 315 315 315 315
314 313 316 319 315 314 316 315 314 314 314 313 312 314 317 317 316 312 311 312 313 315 317 318 319 319 320 323 325 326 327 329 328 328 330 331 331 332 333 333 333 333 333 333 334 334 334 334 334 333 334 335 335 334 334 334 333 333 334 335 335 335 334 334 333 332 331 331 330 329 329 329 329 328 328 328 326 326 325 325 325 325 324 323 322 321 320 319 319 318 318 318 317 315 315 314 314
317 314 314 316 314 313 315 316 314 313 313 314 313 313 314 316 315 313 311 311 313 313 313 314 316 316 317 319 323 324 325 327 326 326 329 330 331 332 333 333 333 333 334 334 334 334 334 334 334 334 334 334 335 334 333 333 333 332 333 334 334 334 334 335 334 333 332 332 331 330 330 329 329 329 328 328 327 327 326 325 325 325 324 324 323 322 320 320 320 319 319 319 318 317 316 315 315
317 314 313 315 315 314 315 317 315 312 313 314 314 313 313 314 313 314 313 312 312 313 312 312 313 314 314 316 320 322 324 325 324 324 327 329 331 332 332 333 333 334 334 334 334 334 334 334 334 334 334 334 334 334 334 333 333 333 334 334 334 334 334 334 334 334 333 333 332 331 330 330 329 329 328 328 328 328 327 326 325 325 325 324 323 323 322 322 321 320 320 320 319 317 317 317 316
313 313 313 314 315 314 316 318 314 312 314 313 314 313 313 313 314 314 312 312 313 313 313 312 311 313 314 315 317 321 323 322 321 322 325 327 329 331 332 332 333 333 333 334 334 334 334 334 334 334 334 334 334 334 334 333 333 333 334 334 334 334 334 334 335 334 333 333 333 332 331 330 330 329 328 328 328 328 328 327 326 325 325 325 324 324 324 324 322 321 320 319 319 317 317 318 317
310 313 315 313 314 314 314 316 314 312 313 315 315 313 313 313 314 313 311 312 314 314 313 313 311 311 312 314 315 317 320 320 320 321 322 325 328 329 330 331 332 333 333 333 334 334 334 334 334 334 334 334 334 334 334 333 333 333 333 333 334 334 334 334 334 334 334 333 333 332 331 330 330 330 329 328 329 329 328 328 327 327 326 325 325 324 324 324 323 321 320 319 319 318 318 317 317
310 316 317 315 315 314 314 315 314 312 313 318 317 314 314 314 313 312 311 313 314 313 313 313 312 311 310 312 313 314 316 319 321 320 319 322 326 327 328 330 331 332 333 333 333 334 334 334 334 333 334 334 334 334 334 333 333 332 332 332 333 333 333 333 333 333 333 333 333 333 332 331 331 330 330 329 329 329 329 328 328 328 327 326 325 324 323 323 323 322 320 319 319 318 317 316 316
312 315 316 317 317 315 314 314 314 312 313 317 317 315 316 316 315 315 313 313 313 312 313 312 312 312 311 311 311 313 315 317 320 320 318 319 323 326 327 328 330 331 332 332 333 333 333 333 333 333 333 333 333 334 333 333 333 332 332 332 332 332 332 333 333 333 333 333 333 333 332 332 331 331 330 330 330 329 330 329 329 329 327 326 326 325 324 323 324 323 322 321 319 318 317 316 316
313 315 316 319 319 316 315 315 314 313 313 317 315 314 319 320 316 317 314 312 311 312 312 312 312 312 312 311 311 313 314 314 316 318 317 317 320 324 326 328 329 330 331 331 332 332 332 333 333 333 333 333 333 333 333 333 333 333 332 332 331 331 332 331 332 333 333 333 333 332 332 332 332 332 331 330 330 330 330 329 329 329 328 327 326 325 325 324 324 325 324 323 321 319 319 318 317
313 316 318 322 322 318 317 317 316 314 314 316 313 313 326 328 321 320 316 311 311 311 312 313 312 311 311 311 312 312 313 313 314 315 315 314 317 321 324 327 328 329 330 331 332 332 332 332 333 333 333 332 333 333 333 333 333 333 332 331 331 330 330 330 331 331 332 332 332 332 332 332 332 332 332 331 331 330 329 329 329 329 328 327 327 326 326 325 324 324 324 324 322 322 320 318 317
313 316 319 323 325 322 320 318 317 318 315 315 314 315 322 324 322 325 320 315 315 312 312 314 312 311 311 310 311 311 311 312 313 314 313 312 314 318 321 324 327 328 329 330 330 331 332 332 332 332 332 332 332 332 333 332 332 332 332 332 331 330 329 330 330 330 330 331 331 331 332 332 332 332 332 331 330 330 329 329 329 329 328 327 327 326 326 326 325 324 324 324 324 323 321 318 317
314 320 323 323 323 324 324 319 318 321 315 316 323 320 315 317 320 324 318 314 318 316 314 315 313 311 311 310 310 310 311 312 312 314 314 311 311 315 319 322 325 327 327 328 329 330 331 332 332 332 332 332 332 332 332 332 332 331 332 331 330 330 330 329 329 329 330 330 331 331 331 331 331 332 332 331 330 329 329 329 329 329 328 327 326 326 326 327 325 325 324 323 322 321 320 320 319
318 324 325 323 322 324 326 322 320 319 313 317 326 317 314 323 327 325 318 313 319 323 319 320 317 313 311 310 310 310 311 311 312 313 313 310 308 312 317 320 322 325 326 327 328 328 329 330 331 331 332 332 332 332 332 332 332 331 331 330 330 330 329 329 329 328 329 330 330 329 329 329 330 330 330 330 329 328 328 328 328 328 328 327 326 325 326 327 326 325 325 323 322 321 321 321 320
319 323 323 323 325 324 324 326 326 318 314 321 326 316 314 324 329 326 318 313 317 321 318 317 318 315 312 310 310 311 310 310 311 312 310 308 308 311 314 317 320 322 324 325 326 327 328 328 329 330 330 331 331 331 332 331 331 331 330 330 329 329 329 328 328 328 328 329 329 329 329 328 328 328 329 329 329 328 328 327 326 327 328 328 326 325 326 326 325 325 324 324 323 322 322 322 319
319 323 322 320 325 328 329 336 330 316 318 329 331 323 314 317 326 324 316 315 317 316 315 315 316 317 315 312 311 311 311 311 311 312 309 306 307 309 311 314 318 320 322 323 324 325 327 327 328 329 329 329 330 330 331 331 331 331 330 330 329 329 329 328 328 327 328 328 328 328 328 328 327 327 327 328 329 329 327 326 326 326 326 326 325 325 325 324 324 325 325 324 323 322 322 321 320
319 327 323 317 324 330 331 334 327 317 322 330 327 321 315 315 324 323 318 318 317 314 316 318 318 320 321 319 317 313 312 313 313 315 312 309 309 309 309 311 314 317 320 321 323 323 325 326 327 328 328 329 329 329 330 330 330 330 330 330 329 329 328 328 328 327 327 327 327 327 327 327 326 326 327 327 327 327 326 325 325 324 323 324 325 325 324 324 324 324 323 322 322 322 321 321 320
317 323 319 317 322 322 320 323 322 320 322 320 316 315 315 317 320 319 317 317 317 315 315 316 317 318 319 323 329 326 319 316 314 315 315 315 314 309 308 310 311 313 317 319 321 322 323 324 325 326 328 328 329 329 329 330 330 330 330 329 329 328 328 327 327 327 327 327 327 327 326 326 326 326 327 326 326 326 325 325 324 323 323 324 324 323 323 323 322 322 322 321 322 322 321 321 319
314 315 316 318 320 316 316 319 318 318 320 316 313 313 316 318 318 318 316 313 315 314 311 314 316 315 314 320 331 336 331 325 321 318 317 319 315 307 307 310 310 311 313 315 318 320 321 322 323 324 325 327 328 328 329 329 329 329 329 329 328 327 327 327 327 326 326 326 326 326 326 326 325 325 325 325 325 325 325 324 323 323 324 323 321 320 321 322 322 322 322 322 321 321 321 320 318
315 317 317 319 322 319 318 319 318 319 320 316 312 314 320 319 317 318 316 313 314 313 312 315 315 317 319 322 326 331 332 331 328 326 326 322 312 307 309 309 309 311 311 312 314 317 319 320 322 323 323 324 325 326 327 327 328 328 328 328 327 327 327 327 327 326 326 326 326 326 326 325 325 325 325 324 324 325 325 324 322 321 321 321 320 320 321 322 322 321 321 320 320 319 319 318 317
318 320 317 318 323 325 321 321 325 325 322 318 313 318 324 319 314 316 313 312 314 313 313 313 315 320 322 324 328 328 329 329 328 329 333 324 309 307 310 309 309 310 310 311 312 313 316 318 320 321 322 323 323 324 325 325 326 326 326 327 326 327 327 326 327 326 326 327 326 326 325 325 325 324 324 324 324 325 325 324 322 320 320 321 320 320 320 321 320 320 320 318 317 317 316 316 315
316 315 317 319 319 324 322 316 317 318 318 319 315 317 325 320 315 319 316 314 315 315 316 314 316 321 321 322 327 328 328 328 327 327 329 322 309 307 310 310 310 310 310 311 311 311 313 314 316 318 320 321 322 322 323 323 325 325 325 326 326 326 326 325 326 326 326 326 325 325 325 324 324 324 323 323 324 324 324 323 322 321 320 321 321 321 321 321 320 319 319 318 317 316 316 315 315
317 316 317 317 314 320 325 318 315 314 315 320 316 315 323 321 318 322 319 314 316 317 317 315 315 320 320 321 324 324 322 323 323 321 321 317 307 306 310 311 311 312 311 311 312 311 312 312 313 315 316 319 320 321 322 322 324 324 324 325 325 325 325 325 325 325 325 325 324 324 324 324 323 323 322 322 323 323 323 323 322 322 322 321 321 321 321 321 320 319 319 317 317 317 316 316 315
315 317 316 317 316 317 320 318 319 317 314 320 320 315 318 320 320 322 317 313 317 317 316 316 316 319 320 322 324 323 321 322 322 321 323 320 308 306 311 312 313 314 313 313 312 311 311 311 312 313 313 315 317 319 321 322 323 324 324 324 324 324 324 324 324 324 324 324 323 323 323 323 322 321 321 322 323 324 323 323 322 322 322 322 322 322 322 321 320 319 318 317 317 316 316 315 314
312 314 312 315 318 318 318 317 320 321 318 322 323 316 318 322 321 322 316 313 316 313 314 320 321 319 319 322 325 327 328 327 324 322 328 326 311 307 312 314 315 316 315 315 313 312 311 310 311 312 312 313 315 317 319 321 322 323 323 323 323 323 324 323 323 323 323 322 322 322 321 321 320 320 321 323 324 324 323 323 322 322 322 322 321 321 321 321 319 318 318 317 316 315 315 314 313
313 315 313 313 314 317 320 318 320 323 323 324 320 316 323 326 319 319 316 314 315 313 315 327 333 328 326 326 327 329 328 328 327 325 328 325 312 309 314 314 315 316 316 315 314 313 312 311 310 310 311 312 313 314 316 318 320 322 322 323 323 323 323 323 322 322 321 321 321 321 320 320 320 320 322 323 323 323 322 322 322 321 321 320 320 320 319 319 318 317 316 315 315 314 314 313 312
314 315 314 314 314 318 318 316 318 320 320 324 320 315 322 324 318 316 315 315 316 314 316 328 339 337 333 329 328 328 326 327 328 326 329 323 310 309 313 313 315 316 316 316 315 314 314 312 312 311 311 311 312 313 314 316 318 320 321 321 322 322 321 321 321 321 320 320 319 320 319 320 321 322 322 322 322 322 321 321 321 320 320 319 318 318 317 316 316 315 315 314 313 313 312 312 311
Wind_Speed
8 7 6 4 4 4 2 3 2 3 2 0 3 1 2 3 2 2 3 1 2 2 2 3 4 5 6 6 8 7 4 2 4 4 3 4 20 26 19 20 20 18 17 15 13 12 13 15 14 14 15 14 12 12 14 17 18 16 17 17 17 17 16 16 15 16 16 16 17 18 20 20 21 21 20 20 20 20 19 20 21 21 21 21 21 21 21 22 22 22 22 22 22 21 21 21 21
8 6 4 4 5 3 1 3 3 3 4 2 4 3 2 1 3 5 5 3 3 3 2 7 10 10 10 9 8 5 4 4 2 4 2 14 25 21 20 22 20 18 18 15 13 12 13 16 17 15 14 13 12 12 14 18 18 16 16 17 16 16 16 16 16 15 16 17 18 18 18 19 20 20 20 20 19 20 19 19 20 21 21 21 21 21 22 22 22 23 22 21 21 21 21 20 20
7 4 4 3 3 3 1 3 2 1 3 1 4 3 1 2 4 5 5 7 8 7 6 8 8 7 7 7 4 4 0 4 4 4 6 20 20 18 24 21 20 19 18 16 13 12 13 17 16 14 14 14 12 12 15 17 18 17 15 16 16 16 16 16 16 15 16 17 17 18 18 18 18 18 19 20 20 19 19 19 19 20 20 20 20 21 22 22 22 22 21 21 21 20 20 19 19
5 4 5 4 2 3 4 3 1 4 1 3 2 5 2 5 6 5 4 6 7 6 4 4 5 2 5 7 2 3 2 0 4 4 7 17 18 24 27 21 21 19 18 16 14 13 14 16 15 15 15 15 12 12 16 16 18 18 15 15 16 15 16 16 16 16 16 16 16 17 17 17 18 17 18 20 19 19 19 19 19 19 20 20 19 20 21 21 21 21 21 21 21 20 19 19 19
4 2 4 5 2 1 3 2 1 3 3 3 2 5 3 6 6 5 4 3 3 4 4 4 3 2 4 5 2 2 3 4 5 6 10 16 22 28 26 23 22 19 18 16 14 14 13 16 17 16 15 14 13 12 14 15 17 18 16 15 15 15 15 15 16 16 15 15 15 16 17 18 18 17 17 18 19 19 19 18 18 19 19 19 19 20 20 20 20 20 20 20 20 20 19 19 19
2 2 3 4 2 1 2 0 1 1 5 5 3 5 5 6 7 7 3 1 3 4 5 4 4 3 3 2 1 4 4 5 7 9 15 20 26 27 25 24 22 19 18 16 15 13 13 16 18 16 14 13 13 11 12 15 17 18 18 16 15 14 14 15 15 15 15 14 14 15 16 17 17 17 16 17 18 18 17 18 18 19 19 19 19 19 18 19 19 20 20 19 19 20 19 18 18
3 2 3 4 1 2 3 2 3 3 4 6 5 6 8 7 7 8 5 2 4 4 4 5 7 7 2 1 2 2 2 6 10 13 19 25 27 26 25 24 21 19 18 16 16 14 13 15 16 16 14 14 13 12 11 14 17 17 19 17 15 14 14 15 15 15 15 14 14 14 15 16 16 16 16 17 18 17 17 18 18 18 18 18 18 18 18 18 18 19 19 19 19 20 19 18 17
3 2 1 3 0 2 3 2 3 3 4 4 5 7 10 9 8 8 6 2 2 1 4 4 6 7 1 1 3 2 2 9 13 18 25 28 28 26 25 23 21 20 18 17 16 15 14 13 15 15 16 15 13 13 11 13 16 17 18 17 15 14 14 15 15 15 15 14 13 14 15 15 15 15 16 17 17 16 16 16 16 17 17 17 17 17 17 17 17 18 19 19 18 18 18 17 17
3 2 1 3 2 1 1 2 3 3 5 2 5 6 7 8 6 8 7 1 3 4 4 5 3 5 1 3 2 3 5 14 18 24 28 28 28 26 25 23 21 21 19 17 16 16 14 13 14 16 17 14 14 14 12 13 15 16 17 17 16 13 14 15 16 15 15 14 13 14 15 15 15 16 16 16 16 16 16 16 16 16 16 16 16 16 16 16 17 19 19 18 17 17 17 16 16
3 3 1 1 2 0 2 3 3 4 4 2 3 6 8 7 5 6 8 5 4 6 3 3 5 6 5 3 1 2 8 20 24 28 30 29 27 26 24 22 21 21 20 18 17 16 14 13 13 15 16 15 15 15 13 12 14 15 16 17 16 13 14 15 15 16 16 15 13 13 14 15 15 15 16 16 16 15 15 15 15 15 15 15 15 16 15 15 17 18 18 17 17 17 16 15 15
2 3 2 2 2 1 3 3 4 4 4 1 1 4 6 6 6 4 7 6 3 5 3 2 6 6 6 2 1 1 11 24 29 30 31 30 27 25 24 22 20 19 20 19 18 16 15 13 13 13 14 15 15 16 16 13 13 15 15 16 16 14 14 14 15 16 15 14 14 14 14 14 14 14 15 15 15 15 14 14 14 14 14 15 15 15 14 15 16 17 17 17 18 17 16 15 14
2 2 4 3 2 3 4 3 5 4 5 0 3 4 4 4 6 6 7 7 4 6 4 2 6 5 6 1 2 3 13 24 29 32 31 31 28 25 23 22 20 18 19 19 18 17 16 14 13 13 13 13 13 16 18 14 14 15 15 15 14 13 13 13 14 14 13 13 14 14 14 14 13 13 14 15 14 14 13 13 13 13 14 14 14 14 13 14 15 16 16 17 17 16 15 15 14
2 2 5 2 3 3 4 3 4 1 4 3 5 4 6 4 5 8 8 7 6 6 4 5 9 5 4 1 1 3 12 23 28 31 30 30 29 25 23 22 20 19 19 19 19 18 17 15 13 13 13 12 11 14 17 15 15 15 15 14 13 12 12 12 12 12 11 12 13 13 12 12 12 12 12 13 14 14 13 13 13 13 13 13 13 13 12 13 16 17 17 17 16 16 15 15 13
2 3 5 2 1 4 4 2 2 4 4 5 3 4 7 3 4 8 8 8 6 5 4 7 10 6 3 2 2 2 12 23 29 29 26 27 29 26 24 23 21 20 19 19 19 18 18 16 14 13 13 12 10 12 14 14 14 15 16 14 14 13 11 11 11 10 10 11 11 11 10 10 10 11 11 11 12 14 13 12 12 12 12 12 12 12 11 13 16 18 16 16 16 16 15 14 12
3 2 4 2 1 1 3 2 3 5 5 5 4 5 5 1 4 8 8 10 5 3 5 7 7 3 4 7 5 8 18 28 30 28 22 24 29 26 24 24 22 20 20 20 19 18 18 17 15 14 13 12 11 11 12 12 12 13 15 15 14 12 11 10 10 10 10 10 10 11 10 10 10 9 10 10 10 11 12 12 12 12 12 12 11 11 11 12 16 17 16 15 15 15 14 13 12
2 3 4 1 2 1 3 3 3 3 5 5 4 6 6 1 3 6 4 6 4 0 3 4 2 1 9 9 9 19 27 31 31 26 21 25 28 27 26 24 23 21 21 21 19 19 19 18 17 15 14 12 12 11 11 11 11 12 13 13 12 11 10 11 11 10 9 9 10 11 10 10 10 9 9 9 9 9 9 10 12 12 12 11 11 10 10 12 16 17 16 15 14 13 12 12 11
3 3 3 1 2 3 4 4 4 3 5 5 5 5 7 1 1 2 1 4 6 3 4 1 3 1 9 5 12 31 33 32 32 26 23 26 27 26 26 25 24 24 23 22 20 19 19 19 18 17 16 14 13 12 11 11 11 11 11 12 11 11 11 11 11 10 9 9 9 10 11 10 10 9 8 8 8 8 8 9 11 12 12 12 11 10 10 12 15 17 15 14 13 12 11 11 10
3 2 2 2 3 4 4 6 6 3 4 7 8 7 9 6 3 2 3 6 4 4 5 2 5 5 4 5 21 36 33 33 32 27 25 26 26 24 24 26 26 26 25 24 21 21 20 20 19 18 17 16 14 13 13 12 12 12 12 12 11 11 11 11 11 10 9 9 9 11 11 11 9 9 8 8 8 8 8 8 9 9 10 11 11 10 9 11 14 16 15 13 13 12 11 10 10
3 3 2 4 4 5 5 5 5 3 5 7 7 7 8 8 6 4 4 3 3 6 4 3 5 6 5 12 27 33 32 33 31 28 25 25 26 24 24 25 26 26 26 26 24 22 21 20 20 19 18 17 16 15 14 14 14 13 13 13 12 12 11 11 10 10 10 10 10 11 11 10 9 8 7 7 7 8 8 8 8 7 8 8 8 8 8 9 11 14 15 14 13 12 11 10 10
2 3 2 6 5 4 4 5 5 5 5 7 8 6 7 7 6 4 6 6 5 6 4 2 4 4 7 12 23 29 30 30 30 28 24 24 26 25 27 27 27 28 28 27 24 23 22 22 21 20 19 18 18 16 16 15 15 15 14 14 13 13 12 11 11 11 12 12 11 11 11 10 9 8 7 7 7 8 8 8 8 7 7 6 6 6 6 7 8 11 13 13 12 12 12 11 10
1 3 4 5 3 2 4 4 4 4 4 8 7 6 6 6 4 4 9 8 3 7 8 8 9 11 11 11 19 26 26 26 27 26 23 24 24 25 27 27 27 28 28 26 24 25 24 23 21 21 20 19 19 18 17 17 17 16 16 15 14 14 13 12 13 13 13 12 11 11 10 9 8 7 7 7 7 7 8 8 8 7 7 6 6 6 7 7 7 9 11 12 12 11 11 12 11
1 3 6 5 3 2 6 3 1 1 3 6 7 7 7 4 2 5 12 10 6 7 8 9 12 14 15 15 18 21 22 23 25 25 24 24 24 24 25 26 26 26 27 27 26 26 25 24 22 21 21 20 20 19 19 18 18 18 17 17 16 15 15 14 14 15 14 13 11 10 11 10 8 7 7 7 7 7 8 9 8 7 7 7 7 6 6 8 8 9 10 11 11 10 10 11 12
2 4 3 5 3 3 5 3 2 3 5 7 8 6 6 6 3 6 12 10 5 5 9 10 13 17 20 20 19 18 18 21 24 26 26 26 26 26 26 27 26 27 28 28 27 27 26 25 22 21 22 22 21 20 19 19 19 19 18 17 17 16 16 16 16 16 15 14 12 12 12 11 9 8 8 8 8 7 8 9 9 8 7 7 7 6 6 8 8 9 10 11 11 9 10 10 10
3 3 4 4 3 4 4 3 4 3 7 7 4 4 7 9 5 4 8 8 4 5 10 13 15 20 21 19 17 18 19 22 25 28 28 26 27 26 26 27 28 29 29 28 27 27 27 26 25 23 23 23 22 21 20 20 20 20 19 18 18 17 17 17 17 17 17 15 13 13 12 11 10 10 10 10 9 8 7 8 9 8 8 7 8 8 7 8 8 9 11 12 10 9 10 9 9
2 3 5 4 2 4 4 3 5 2 5 2 5 4 6 8 5 5 8 9 4 4 10 12 14 16 16 15 15 16 18 21 24 26 26 25 24 24 25 27 28 29 30 30 29 28 28 27 27 25 25 25 23 22 22 21 21 21 21 20 19 19 19 18 17 17 17 16 15 13 13 13 12 12 12 12 11 10 8 8 9 9 8 7 9 9 9 7 7 9 12 12 10 10 10 9 8
2 2 5 5 4 5 3 2 4 1 2 4 7 4 3 3 1 3 8 8 3 5 10 11 12 13 13 13 14 16 16 19 23 25 26 25 23 24 25 27 28 31 32 32 31 30 29 28 29 28 27 26 25 24 24 23 22 23 23 20 19 20 19 18 17 17 17 17 16 15 15 14 14 14 14 13 14 12 10 10 10 10 9 8 8 8 9 7 7 9 11 11 10 10 10 9 9
4 2 4 5 5 4 1 1 4 3 0 4 7 4 4 4 2 4 7 5 5 8 10 11 13 14 14 12 12 17 17 20 25 24 23 22 24 26 27 28 29 31 32 32 34 33 30 30 30 29 28 27 27 26 26 26 24 24 23 21 21 21 19 18 18 17 17 17 17 16 16 15 14 15 15 15 15 14 13 12 11 11 11 10 8 7 8 7 7 8 10 11 11 10 9 9 10
3 1 3 5 4 5 2 1 4 2 0 4 7 3 3 4 1 6 6 4 6 10 11 11 13 13 13 13 11 14 17 21 25 23 23 25 27 29 29 31 31 30 32 33 34 33 32 31 30 30 30 28 28 28 27 27 26 25 24 23 22 22 20 20 19 19 17 17 17 17 16 15 15 17 16 15 16 15 15 14 13 13 13 12 10 9 9 8 7 8 10 11 11 10 10 11 12
2 3 2 5 5 5 5 3 2 1 1 4 7 2 3 3 6 8 5 6 7 9 12 11 12 10 10 11 10 10 15 19 21 22 27 30 30 30 31 33 32 31 32 33 32 33 34 33 32 31 30 30 29 29 28 28 27 26 25 24 24 23 22 22 21 20 19 19 18 18 17 16 16 18 17 16 16 16 16 16 16 15 15 13 12 11 12 10 10 11 11 11 12 11 12 13 14
2 3 3 3 4 5 6 3 2 3 2 2 4 2 5 9 11 7 5 7 8 8 10 11 10 9 9 9 8 9 13 17 20 25 29 30 30 31 32 33 34 34 33 33 33 34 34 34 34 32 31 31 30 30 29 28 28 27 26 26 25 25 24 24 23 22 21 21 20 20 19 18 17 17 17 17 17 17 17 18 18 17 16 15 15 15 14 13 13 13 12 12 12 12 12 13 14
2 3 3 2 1 4 5 2 5 5 2 2 4 4 6 9 10 6 6 8 10 9 9 10 9 8 8 8 9 9 11 18 23 28 30 30 31 32 32 32 33 35 34 35 36 36 35 34 35 34 34 32 31 31 30 29 29 28 27 27 27 26 26 25 25 24 23 23 23 22 21 20 19 18 18 19 19 18 18 19 19 19 18 18 18 17 17 16 15 14 13 13 13 12 13 13 14
2 4 3 2 4 4 5 2 7 6 1 3 5 3 6 8 8 6 5 8 10 10 9 9 9 9 9 8 9 8 9 16 22 27 29 30 32 32 33 33 34 36 37 37 37 36 36 36 36 36 36 35 34 32 31 30 29 29 28 29 29 28 27 27 27 27 26 25 25 24 22 21 21 20 20 21 21 20 19 19 18 18 18 19 19 19 19 18 16 15 14 14 14 14 14 15 16
3 4 3 3 4 3 3 2 5 5 2 1 3 3 4 5 6 6 4 10 10 9 9 9 9 9 9 8 8 8 8 11 16 23 28 29 31 33 34 35 36 37 39 39 38 38 38 38 38 37 37 37 36 34 32 31 30 30 29 29 30 29 29 29 28 28 28 27 27 27 26 23 22 22 22 22 22 22 21 20 18 17 18 18 19 20 19 18 17 17 16 16 16 16 16 17 17
4 4 4 3 3 3 2 3 4 4 4 4 4 4 6 6 6 5 2 8 9 9 10 9 9 8 8 8 7 8 9 9 12 22 29 30 32 34 35 37 37 37 38 39 39 39 39 39 39 38 38 38 38 36 34 33 32 31 30 30 31 30 31 30 29 30 30 30 29 28 28 26 25 25 24 24 24 24 22 20 19 18 18 18 19 19 19 18 18 18 18 17 17 17 18 18 18
4 5 5 3 2 4 4 3 3 6 5 5 6 5 10 11 8 5 2 5 8 9 8 7 8 8 8 7 7 8 9 10 14 24 31 32 33 35 35 36 37 37 37 37 38 38 38 39 39 39 38 38 38 37 35 34 33 32 32 31 31 32 32 31 30 31 31 31 30 29 29 28 26 26 26 25 25 25 24 22 21 20 20 20 20 19 19 19 19 20 19 19 18 18 18 18 17
5 6 6 4 2 3 4 4 4 6 5 5 7 7 11 13 9 6 4 3 6 6 5 6 7 7 7 7 8 9 10 12 18 26 30 32 35 36 37 37 37 38 38 37 38 38 39 39 39 39 39 39 38 37 36 35 34 34 33 33 34 35 35 34 32 32 31 32 31 29 29 29 27 26 26 27 26 26 26 25 23 22 22 22 22 21 20 20 20 21 20 20 19 19 19 18 16
2 4 6 6 5 4 4 3 3 3 5 5 8 9 11 10 9 7 4 1 4 7 7 8 7 7 8 9 10 11 12 13 17 22 25 30 35 36 37 37 36 37 37 38 38 39 40 40 40 40 40 39 39 39 38 37 37 36 35 36 37 36 36 35 34 33 32 32 31 30 30 29 28 27 27 27 27 27 26 26 25 25 25 25 24 23 21 20 21 21 21 20 19 19 19 18 17
1 1 4 6 6 5 5 2 3 1 4 5 3 6 10 9 9 6 2 4 7 10 10 9 10 9 8 9 12 12 10 9 10 15 20 26 31 33 34 34 35 36 38 39 39 40 41 41 41 41 41 41 41 42 41 40 40 39 38 38 38 36 36 36 36 35 34 32 31 31 31 30 30 29 28 28 28 28 27 27 27 27 27 26 26 24 23 22 22 23 22 21 20 20 21 19 18
4 1 3 4 4 3 4 3 3 1 3 4 1 4 9 9 9 6 5 7 8 10 12 11 11 10 9 11 12 11 10 9 9 11 17 24 29 30 31 32 35 38 39 40 40 40 41 41 41 41 42 43 43 43 43 42 42 41 40 38 36 35 35 36 36 36 34 33 32 31 32 32 31 31 31 30 29 29 29 29 28 27 28 28 27 26 26 25 24 23 23 23 21 21 21 20 20
4 3 3 3 3 3 3 3 2 1 1 1 2 2 6 7 6 6 8 9 8 9 11 10 9 10 12 12 11 11 12 12 12 11 13 21 26 27 30 33 35 36 37 39 40 41 41 42 43 42 43 44 44 44 45 44 42 41 40 38 35 34 34 34 33 34 34 34 34 33 34 34 33 33 33 32 32 31 31 30 29 28 28 29 28 28 28 28 26 24 24 25 24 22 22 22 21
4 5 5 3 4 5 3 2 1 2 2 2 2 3 5 4 4 7 7 5 7 7 7 9 8 10 10 8 8 11 13 13 14 13 12 16 22 27 32 34 35 36 38 40 42 43 43 43 44 44 44 44 44 45 45 44 41 39 37 35 32 30 30 29 30 34 35 35 36 36 37 36 35 35 34 34 33 33 32 32 31 30 29 29 29 29 30 30 27 25 25 26 26 25 24 23 21
3 5 7 6 6 6 3 4 5 3 3 2 1 1 5 4 4 8 5 2 7 6 6 10 10 10 9 8 10 12 12 12 12 13 12 15 22 27 30 33 35 37 40 41 42 43 42 42 43 44 44 43 44 44 45 44 41 39 37 35 33 31 30 31 35 38 37 37 38 38 37 37 36 36 36 35 35 34 34 34 33 32 30 29 28 29 30 31 30 28 26 26 28 28 27 24 22
3 4 7 5 6 6 6 6 5 3 4 2 2 4 5 5 4 7 4 4 8 5 6 10 10 9 9 10 12 12 11 11 10 11 11 14 20 23 27 32 36 39 41 41 40 41 41 41 42 44 44 43 44 44 44 44 42 40 40 40 38 36 34 36 39 39 37 37 37 36 36 37 37 37 36 36 35 35 35 35 34 33 32 31 29 29 31 32 32 29 27 28 30 30 28 26 24
4 4 7 7 6 7 7 7 4 2 3 2 4 3 3 4 5 6 2 4 9 7 8 10 10 11 11 12 13 11 11 11 10 11 11 13 19 23 28 33 38 41 41 38 39 41 42 41 41 42 43 43 43 43 43 44 43 43 42 42 40 40 39 39 37 35 34 34 34 34 35 35 36 36 36 36 35 35 34 34 34 33 34 32 30 30 32 33 32 28 27 30 32 30 28 27 27
5 4 7 6 5 6 6 6 3 1 1 3 4 1 2 5 6 5 3 2 7 8 9 10 10 12 12 12 12 12 12 11 11 12 13 15 20 27 31 33 37 40 39 38 40 40 40 41 40 40 41 42 42 42 43 44 45 44 43 41 40 40 40 38 34 32 32 32 33 34 34 34 35 35 35 35 34 34 34 34 33 34 34 33 32 33 32 32 31 28 27 30 32 31 28 27 27
4 5 6 4 4 4 4 4 4 2 1 4 6 3 2 5 5 4 2 2 6 8 9 9 9 10 10 11 12 12 11 9 10 11 12 16 22 28 31 31 32 36 37 37 37 37 37 38 38 39 40 41 41 42 42 43 44 43 42 42 41 39 38 36 33 31 31 32 32 33 33 34 34 34 34 35 35 35 34 33 33 34 34 34 34 34 32 32 32 30 28 29 31 31 28 26 26
6 7 6 6 5 4 3 2 3 2 3 6 7 5 4 4 5 4 4 5 6 7 8 8 8 8 9 9 9 10 8 8 9 9 11 15 19 22 24 26 29 30 32 33 34 35 36 36 37 38 39 39 40 41 42 43 43 43 43 42 41 40 37 35 34 33 32 32 33 34 33 32 32 33 33 33 33 33 32 31 31 32 32 32 33 34 35 35 34 32 29 29 32 32 28 24 26
7 5 4 4 3 3 3 4 2 2 5 6 5 3 4 5 5 5 6 6 6 7 7 9 9 8 7 7 8 8 8 8 8 8 10 11 13 16 19 24 26 25 27 31 33 33 34 35 36 37 38 39 40 40 42 42 42 43 44 43 42 40 37 36 36 36 35 34 35 35 32 31 30 31 31 32 32 31 30 30 30 30 30 31 32 32 32 31 29 28 28 31 34 32 27 26 30
5 5 6 4 0 1 2 2 1 3 5 4 2 1 3 5 7 8 9 9 9 9 9 9 9 8 7 8 8 7 6 7 8 8 9 8 8 12 18 22 24 25 28 31 32 33 34 35 36 37 39 40 39 40 42 42 43 44 45 44 43 40 38 38 38 37 36 35 35 35 33 31 30 30 31 32 32 31 30 30 30 30 30 30 30 28 28 28 29 31 32 33 32 30 28 31 32
5 6 7 6 3 4 6 4 1 4 5 3 2 2 3 4 5 10 13 13 13 10 8 8 8 8 8 8 7 6 5 6 7 7 8 7 8 12 17 21 23 26 29 30 31 33 34 35 36 37 39 39 39 41 41 42 43 44 44 44 42 40 38 38 38 37 37 36 35 35 34 33 32 32 32 32 32 30 30 30 29 29 30 29 28 27 27 27 28 28 29 29 29 29 30 30 29
4 5 6 6 5 5 6 4 3 4 3 2 2 1 3 3 4 8 11 11 10 8 7 7 7 8 6 6 6 6 6 6 5 6 7 8 10 13 16 18 21 24 26 28 30 32 33 34 35 37 38 38 39 40 41 41 42 42 42 41 41 40 39 39 38 37 37 37 36 35 34 33 32 32 32 31 30 29 29 29 28 27 28 27 26 25 24 25 26 26 27 28 29 29 28 27 27
3 2 5 5 6 5 3 3 4 4 1 2 2 3 4 4 6 8 6 6 7 8 7 6 7 7 4 5 6 6 6 6 5 5 6 7 8 11 14 15 17 18 20 24 27 30 32 34 35 37 38 38 38 39 40 40 40 39 39 39 39 39 38 37 37 36 36 36 36 35 33 32 31 31 30 29 28 28 28 28 26 25 24 25 26 24 23 22 23 24 25 25 26 25 25 26 27
2 3 5 5 4 7 4 2 1 4 2 3 2 3 5 3 6 9 4 4 6 8 8 7 6 6 5 5 7 6 6 6 6 6 6 6 8 10 12 13 15 16 17 20 23 27 30 32 34 35 35 35 35 37 37 37 37 37 38 39 39 39 38 37 36 36 35 35 35 33 32 31 30 30 29 28 27 27 27 27 26 24 23 24 25 25 23 21 20 21 22 22 22 22 24 26 26
5 4 6 3 3 3 3 2 1 2 4 4 1 3 4 2 3 6 6 5 6 8 8 6 5 5 5 7 8 7 7 7 7 7 6 7 8 10 11 13 15 16 18 20 22 24 26 28 30 32 33 33 34 34 35 35 36 37 38 38 38 38 37 37 36 35 34 33 33 31 30 30 30 30 29 28 27 27 26 25 24 23 22 23 23 24 24 23 22 22 22 23 23 23 24 25 25
4 4 3 4 3 2 1 3 3 2 4 4 3 3 4 4 4 4 4 5 7 7 6 6 6 6 6 8 8 8 7 7 7 7 6 6 7 9 11 13 15 16 17 19 20 22 24 25 27 28 30 31 32 32 33 33 35 36 36 36 36 35 35 34 34 33 32 31 31 30 30 30 29 29 27 25 25 25 24 24 23 22 22 22 23 23 24 24 24 24 23 23 23 24 25 25 25
2 1 0 2 3 4 3 3 4 3 4 3 3 3 4 6 6 5 7 9 9 7 5 6 7 7 7 7 7 7 6 6 6 6 6 5 7 10 12 13 14 15 15 16 17 19 21 23 24 25 26 27 27 29 29 31 32 32 32 32 32 32 32 32 31 31 30 30 29 29 28 28 27 26 25 23 22 23 23 23 22 21 21 21 22 22 23 23 23 23 23 23 23 23 24 25 24
2 2 3 2 1 2 2 2 3 4 4 3 2 4 6 6 5 8 10 11 10 7 5 6 6 6 7 6 5 5 5 6 6 6 6 5 7 10 11 12 12 12 13 14 15 16 18 20 23 24 25 25 26 27 27 28 29 28 28 28 28 28 29 29 29 28 28 27 27 26 25 24 22 22 22 22 22 21 21 21 20 20 19 19 20 20 20 21 21 22 22 22 22 22 23 24 23
4 4 6 6 3 4 4 4 2 2 3 4 3 6 9 5 5 8 10 10 9 7 7 6 5 5 6 5 5 6 5 5 6 6 5 5 7 9 9 10 11 12 13 14 14 15 17 19 21 22 23 24 25 25 25 25 25 25 26 26 26 26 26 26 26 26 26 25 24 23 21 20 19 18 19 20 19 19 19 19 18 18 17 17 18 18 19 20 21 22 22 22 22 22 23 23 23
Wind_Direction
337 338 345 334 327 345 350 75 61 323 86 201 281 196 230 206 173 122 107 42 61 359 323 41 64 82 100 118 137 130 94 157 175 145 213 191 151 159 164 158 152 146 145 144 145 138 139 139 131 129 131 129 121 119 123 122 115 110 110 108 108 108 107 104 100 98 97 97 98 97 98 97 94 94 95 93 91 92 91 93 94 92 91 91 92 92 93 93 92 91 90 90 90 90 90 89 88
342 337 351 349 341 5 284 78 85 328 44 341 287 168 228 359 116 156 150 130 116 143 111 90 80 76 88 107 120 99 42 348 142 138 112 142 146 157 162 158 152 146 145 143 143 138 140 140 133 130 133 133 125 123 129 127 118 110 110 109 109 109 107 105 103 102 102 102 101 98 97 95 95 96 98 96 93 92 91 91 93 92 91 93 94 94 94 94 94 94 92 91 90 89 89 87 87
345 340 11 3 349 48 42 41 87 66 54 281 276 243 218 119 170 204 177 138 138 147 124 96 79 77 86 80 54 73 101 334 90 105 120 143 146 158 163 158 151 146 142 141 141 138 139 140 138 138 141 139 128 125 132 130 122 116 114 113 113 110 109 109 107 103 100 101 99 98 97 95 96 97 100 101 100 98 95 93 93 94 94 94 94 95 96 95 95 96 93 92 89 88 88 87 87
350 347 17 40 38 33 56 54 138 129 150 237 252 277 232 161 191 214 195 155 159 158 126 83 58 25 80 94 78 80 137 56 113 122 137 155 157 159 162 157 151 145 141 142 140 137 137 140 139 138 138 135 126 123 131 133 127 122 117 115 114 111 111 110 109 106 101 100 99 100 99 97 99 99 101 103 103 101 98 97 96 96 96 96 96 97 98 97 97 97 95 92 90 89 89 89 88
350 352 20 62 80 27 89 91 108 114 215 200 179 268 223 175 176 175 217 220 190 126 109 93 79 339 59 100 150 113 138 131 140 144 139 160 163 160 161 157 151 146 145 142 139 136 137 142 138 137 135 131 130 126 132 136 132 125 119 116 115 112 112 113 112 110 108 105 103 104 102 102 103 102 101 101 101 99 97 98 97 95 95 97 98 98 99 99 99 98 97 94 92 92 91 90 91
4 55 37 59 87 139 111 17 222 241 234 172 170 244 195 186 173 153 186 248 32 74 99 89 114 114 71 31 59 128 143 129 143 151 145 157 162 161 161 156 151 147 146 143 140 135 137 147 143 140 138 135 136 133 132 136 138 132 126 122 118 114 113 116 116 112 110 108 105 106 107 109 108 104 103 101 100 99 100 103 102 102 100 100 100 100 101 102 101 99 100 98 97 96 93 92 93
42 65 28 57 22 49 107 183 202 243 245 177 181 193 176 193 178 139 145 138 39 27 63 93 126 106 82 347 72 124 149 143 147 156 157 157 159 160 159 156 152 149 147 144 140 134 139 151 150 146 143 142 140 138 134 139 146 141 132 125 120 118 116 118 118 115 112 112 110 108 111 114 112 107 106 105 104 102 101 101 101 101 100 100 101 102 103 106 106 104 104 103 103 102 98 96 95
47 69 36 97 37 15 107 202 224 215 242 205 178 175 175 185 176 140 146 154 94 60 67 125 134 94 345 24 90 279 141 150 153 157 159 155 157 159 160 158 152 150 149 146 141 137 141 150 155 152 146 146 144 140 134 143 152 145 136 128 123 123 121 120 119 116 115 115 114 112 112 114 114 110 108 108 107 104 102 101 99 99 99 99 101 103 104 109 110 107 107 107 106 103 101 101 99
50 59 38 106 167 352 66 293 276 240 257 211 148 172 177 182 181 145 135 108 125 128 119 174 142 104 154 45 79 288 115 147 155 155 157 155 158 160 163 160 153 152 151 149 145 142 142 147 155 153 148 148 150 145 136 143 149 144 142 133 127 128 125 122 120 118 117 115 115 114 112 113 115 112 110 109 110 109 106 105 103 104 103 103 103 105 107 111 114 113 112 110 107 105 103 102 100
46 38 118 110 141 268 311 294 282 269 265 167 157 185 174 182 183 150 134 138 147 121 138 154 86 111 133 88 140 299 129 147 152 154 158 158 158 163 167 162 155 153 153 154 149 145 144 147 154 155 153 152 155 153 141 143 148 145 150 140 131 133 129 126 123 120 118 119 120 117 116 115 113 112 110 107 108 110 109 108 107 106 106 107 108 108 110 117 121 119 116 115 112 109 104 102 101
42 354 113 98 89 187 238 249 271 272 289 52 212 216 180 176 147 142 126 132 149 122 165 103 83 118 111 97 243 223 148 149 152 157 160 160 161 168 171 164 158 155 156 157 153 149 147 149 155 157 156 156 159 158 146 144 153 150 151 146 139 139 134 132 129 126 123 127 128 119 118 117 112 112 112 111 108 109 111 111 109 107 108 110 110 110 112 120 128 123 119 119 118 113 105 104 103
99 317 75 105 164 197 204 213 261 263 300 28 183 227 185 168 141 152 141 141 149 129 192 167 136 143 96 83 250 163 154 153 157 159 161 161 164 172 173 168 163 159 160 160 157 152 150 152 155 159 159 160 160 159 151 147 157 155 151 152 152 150 143 139 134 133 130 132 136 125 121 121 119 120 121 120 113 111 114 115 115 113 113 114 113 114 114 121 131 129 123 121 118 114 108 107 104
130 163 95 154 191 167 171 195 256 229 292 239 191 203 149 166 175 167 146 140 144 133 217 182 145 124 89 182 211 160 164 161 159 159 162 164 167 174 175 170 166 163 164 164 162 156 154 155 156 158 160 163 160 159 158 154 159 159 155 158 160 158 152 148 143 139 131 130 142 141 133 130 128 127 127 127 121 117 116 117 119 116 116 117 117 117 117 121 132 133 126 123 118 114 112 109 105
142 155 122 185 196 134 157 174 209 166 239 246 204 165 147 196 202 167 134 131 165 160 163 149 137 112 90 170 155 204 179 167 161 159 162 165 171 175 174 172 169 168 167 169 168 162 158 158 159 159 160 164 162 160 165 163 160 160 160 161 164 165 162 158 149 139 133 132 142 150 147 141 134 129 128 129 128 124 122 123 122 120 119 119 119 119 119 122 132 134 129 125 120 117 116 110 106
155 139 96 137 311 124 188 208 175 169 227 229 185 147 140 260 166 160 147 145 191 216 119 129 145 132 161 170 182 202 181 170 165 161 158 163 172 174 174 172 171 171 171 173 172 169 163 162 163 161 162 164 164 164 168 168 160 159 163 166 168 169 166 159 153 146 143 141 143 150 151 146 142 137 132 130 133 134 132 134 130 124 122 121 122 124 124 127 133 135 134 131 125 124 121 114 112
126 105 73 125 248 229 220 212 131 150 234 223 187 140 119 335 134 158 199 148 150 79 73 139 189 137 165 178 190 182 174 169 168 165 155 159 167 169 172 172 172 173 174 176 176 176 170 167 168 165 166 165 167 168 168 168 162 160 162 167 170 167 162 157 156 157 155 150 149 155 157 154 151 146 141 135 137 143 141 140 137 131 128 129 128 128 129 132 137 139 139 137 133 132 127 122 120
75 86 80 252 206 198 211 183 158 170 229 223 206 162 134 148 115 152 324 74 116 105 40 117 330 37 171 203 176 168 169 168 169 166 155 157 162 162 167 171 173 174 177 180 180 182 178 174 173 171 171 170 173 173 172 171 170 168 162 162 164 162 159 158 161 163 162 160 157 159 163 163 159 154 149 142 138 142 145 146 146 141 137 137 134 135 137 138 142 144 144 143 141 138 134 130 127
69 95 136 216 192 195 192 180 197 176 198 204 196 177 146 154 171 150 60 53 82 89 36 18 9 15 168 162 155 160 166 168 171 168 157 158 162 161 166 171 173 176 179 181 184 186 185 182 179 177 175 176 178 178 177 175 177 178 172 167 163 162 162 163 165 164 163 162 162 163 166 168 166 162 156 149 144 141 143 149 155 150 143 141 140 142 144 143 146 151 151 149 147 144 143 137 133
115 131 153 221 198 209 201 182 211 201 205 191 172 171 158 164 164 139 125 139 141 109 34 8 48 43 98 134 148 157 165 169 173 171 165 163 167 167 168 173 175 178 180 182 185 187 189 188 186 184 181 180 181 182 183 180 181 183 182 178 172 170 170 169 167 161 156 151 155 161 166 169 168 166 163 158 153 147 145 148 156 157 151 147 147 146 139 138 148 157 159 156 154 152 152 147 140
166 140 185 236 213 239 228 185 220 238 211 171 166 174 167 172 160 136 143 160 175 159 167 156 137 133 125 139 149 156 165 172 176 176 173 172 173 173 172 176 178 181 183 183 183 187 190 191 190 190 187 186 186 187 188 186 185 186 186 184 182 179 175 173 168 160 154 149 150 154 159 162 164 165 166 169 166 160 156 155 160 162 163 163 163 161 150 144 153 164 168 166 162 161 161 158 151
171 154 198 232 190 250 256 209 240 261 206 175 162 145 162 183 158 138 139 141 219 215 197 181 167 159 148 151 154 159 167 175 180 181 180 179 180 179 178 180 182 184 186 184 185 188 190 191 191 191 192 191 190 192 193 193 190 188 189 187 187 184 180 176 170 164 161 160 160 160 163 163 168 169 167 173 173 174 171 170 173 176 179 180 177 174 171 167 169 174 176 176 171 170 171 171 170
161 216 213 223 162 220 271 260 274 318 139 149 146 151 165 165 132 155 157 165 215 213 197 180 161 158 157 158 158 163 170 177 184 187 186 185 186 185 184 183 183 186 188 189 190 192 192 191 192 191 193 196 195 196 196 197 198 194 193 191 189 187 183 178 172 170 168 171 175 178 181 181 186 185 182 183 179 181 186 187 188 191 195 195 191 185 180 179 183 185 183 181 178 176 176 178 181
210 273 243 241 205 212 280 303 354 61 126 159 168 174 144 133 160 182 178 190 206 173 166 166 162 162 159 157 160 167 175 182 188 191 190 188 189 188 186 186 185 186 189 193 195 196 196 194 195 196 196 199 199 198 197 199 203 202 198 195 194 191 187 182 177 175 174 179 187 193 192 190 199 205 203 198 191 184 188 196 198 198 199 201 200 194 188 184 184 189 188 184 182 184 185 181 178
196 260 295 287 222 213 269 301 342 71 165 194 159 136 145 162 176 164 197 221 227 174 156 158 161 158 156 158 167 174 179 186 191 194 194 192 192 190 188 189 190 189 191 194 197 200 201 198 198 201 201 203 203 199 199 202 204 205 202 201 201 198 195 191 186 182 182 188 194 197 195 198 212 221 219 210 201 190 184 192 194 194 191 191 195 191 186 183 182 188 187 186 190 196 197 192 182
145 245 291 317 260 253 292 310 331 70 173 186 112 147 185 186 166 148 210 234 239 170 145 150 154 154 162 169 174 177 181 187 193 195 197 197 195 193 192 193 193 193 195 195 197 200 203 201 201 204 207 206 206 204 204 206 206 205 204 205 205 203 203 201 195 189 190 195 200 199 198 208 222 230 228 217 207 199 193 192 192 193 193 192 190 188 185 179 181 186 187 192 198 200 204 207 205
175 245 277 290 273 271 305 314 306 317 151 130 139 182 246 231 200 184 217 222 196 128 141 150 153 162 173 176 178 179 182 188 192 195 197 198 196 196 197 196 196 198 199 198 198 200 201 202 203 207 209 208 208 207 207 208 208 206 205 207 207 205 207 207 202 196 195 200 205 204 203 213 224 229 227 217 210 207 204 204 203 200 204 208 198 192 192 186 187 195 201 207 208 207 210 216 221
210 225 291 285 277 276 293 206 279 307 38 155 153 182 266 304 331 219 229 206 136 122 148 160 160 174 180 180 184 182 185 190 192 193 194 196 198 200 200 199 201 201 202 201 201 201 201 203 206 208 210 211 210 210 209 209 210 208 208 210 208 208 207 206 206 203 199 203 209 211 210 216 223 226 222 215 213 211 210 213 214 212 213 218 216 214 213 207 208 216 222 223 221 218 219 226 232
221 169 332 311 324 311 288 189 257 295 44 168 135 126 296 344 318 225 222 171 139 136 154 170 173 181 184 183 186 185 192 194 192 191 192 197 200 201 202 203 203 203 204 205 204 203 203 205 208 209 211 212 212 212 211 210 212 211 211 213 211 211 210 207 209 209 206 208 212 215 218 222 223 222 218 215 217 216 216 217 220 222 221 224 227 232 234 230 232 236 232 227 227 228 229 232 234
240 165 275 303 354 323 255 204 234 179 198 192 131 95 295 253 228 228 202 157 143 146 160 176 183 186 187 186 186 191 196 193 191 196 199 201 202 202 204 206 205 205 206 207 207 206 207 207 207 210 211 213 214 214 213 213 215 214 214 216 214 213 213 212 212 212 213 214 216 219 222 228 227 222 218 217 221 223 223 222 224 227 229 231 235 239 241 241 241 242 236 227 227 230 233 232 232
241 164 207 278 358 313 247 200 170 157 208 222 139 193 255 236 233 227 193 160 141 152 171 179 186 188 190 189 190 198 198 193 196 203 205 204 204 204 206 208 208 208 209 208 208 209 209 208 208 210 212 214 215 214 214 215 216 218 218 218 217 215 215 216 216 216 218 218 220 222 224 229 231 226 223 221 223 226 228 228 229 231 232 234 237 241 242 244 244 242 238 233 232 235 239 240 242
214 165 189 212 204 274 270 189 150 162 214 77 122 209 252 248 245 228 194 168 154 168 182 185 190 191 191 193 195 202 202 200 204 206 207 206 205 206 208 209 209 210 211 210 211 212 211 210 210 211 213 215 215 214 215 217 218 219 221 220 219 219 219 219 219 219 222 222 223 225 227 231 233 231 229 227 226 228 229 230 232 234 234 235 238 241 241 243 245 243 242 240 240 243 246 248 252
210 190 206 199 190 262 299 188 163 170 210 92 127 207 266 265 263 259 200 177 173 177 187 191 193 194 194 198 200 205 211 209 211 213 211 210 207 208 209 209 210 211 212 212 213 212 212 212 211 211 213 214 214 215 218 219 220 222 223 222 221 223 223 223 223 223 225 226 226 228 230 232 234 233 232 231 230 231 232 234 236 236 234 235 238 241 241 242 243 243 245 244 245 246 249 252 255
237 209 208 200 186 242 306 247 204 184 136 133 170 211 263 268 284 299 206 185 188 182 192 198 194 200 197 198 204 205 212 214 218 220 217 213 210 210 210 210 211 213 213 214 213 212 211 211 211 212 213 213 214 216 219 220 223 225 226 224 224 226 226 227 227 226 227 228 230 231 230 232 235 234 232 232 232 232 234 237 240 238 234 235 237 238 239 240 242 243 244 245 247 248 251 253 255
228 205 207 227 190 200 251 270 243 189 164 195 202 220 246 262 294 317 190 179 193 194 196 199 198 204 202 201 207 207 209 211 217 220 217 213 212 212 212 212 213 214 215 215 214 213 212 211 211 213 214 214 215 216 218 221 224 227 228 227 227 229 230 230 230 229 229 230 233 234 232 232 235 235 233 232 232 234 236 238 240 239 236 235 235 236 237 239 241 243 245 246 248 249 250 253 257
190 187 199 235 204 201 216 237 217 172 180 199 189 232 255 262 283 299 251 169 189 209 203 203 208 206 206 205 209 213 213 216 219 218 215 212 212 213 213 213 213 214 215 215 215 214 213 211 211 212 214 214 215 216 217 219 223 226 227 228 229 231 233 233 231 231 231 232 234 235 233 232 234 236 235 233 232 233 235 237 239 239 239 238 237 235 236 237 239 241 244 246 247 248 250 253 257
173 183 186 200 208 228 221 237 239 170 166 206 194 219 244 250 266 272 266 174 181 227 232 221 221 213 212 210 213 217 216 223 223 219 214 211 212 213 213 214 214 214 215 215 214 212 210 209 210 211 213 215 214 214 215 216 218 221 223 224 226 229 232 233 233 233 233 234 235 235 233 231 232 234 234 234 233 234 235 236 237 238 240 239 237 235 235 238 239 239 241 243 244 245 247 250 254
175 171 181 207 217 245 242 239 277 157 156 225 211 221 243 249 261 263 259 192 197 233 238 232 229 219 217 214 218 219 218 227 226 221 216 212 213 214 214 214 213 213 214 214 213 211 210 210 210 211 213 214 213 213 213 213 213 215 217 220 223 225 227 230 232 233 235 235 235 234 233 232 232 232 232 233 233 234 235 235 237 238 239 240 239 237 239 242 242 242 242 243 244 245 246 248 249
250 167 176 217 218 239 259 245 292 122 168 244 227 229 254 256 258 262 192 183 221 224 222 227 223 219 221 221 224 224 227 236 230 223 218 214 215 215 214 214 213 213 213 212 212 212 212 213 212 213 213 213 214 214 213 213 214 214 215 218 221 223 225 227 230 233 235 235 235 235 234 233 232 232 233 234 235 236 235 236 238 238 239 241 240 240 240 242 243 243 242 242 242 243 245 246 244
211 176 150 214 223 243 287 287 301 56 178 252 212 210 252 258 253 247 188 199 229 223 215 221 217 214 218 220 224 227 231 238 231 225 218 215 215 214 214 214 214 215 215 214 214 214 214 214 214 214 215 214 215 215 215 216 217 217 218 220 222 224 227 229 232 234 235 235 236 236 235 234 233 233 234 234 236 238 238 237 240 242 241 241 240 240 239 240 241 242 242 243 242 240 242 242 241
197 170 157 220 219 192 245 260 267 59 110 204 150 228 269 273 276 259 221 213 234 234 223 227 221 216 219 219 221 220 221 226 226 226 220 216 215 213 212 213 214 215 216 216 215 215 215 214 215 215 215 215 216 216 217 219 220 219 220 222 225 227 230 233 234 236 236 236 236 236 236 235 234 235 234 235 236 238 240 240 242 244 243 241 241 240 240 239 239 241 244 244 242 239 241 243 243
217 190 182 213 202 190 204 195 128 29 1 84 98 349 303 273 270 260 241 219 242 250 239 244 241 230 233 238 235 224 220 221 220 221 217 213 213 213 212 212 213 214 215 216 215 215 215 215 215 216 216 216 216 217 219 219 218 218 218 220 223 226 228 230 231 233 233 234 235 235 235 234 234 235 235 236 236 237 239 241 243 244 243 242 242 242 243 243 242 242 245 245 244 242 245 249 247
246 213 197 195 182 174 157 132 93 59 301 294 132 274 292 299 267 250 263 280 253 245 229 241 244 238 237 238 237 230 225 224 222 223 217 212 213 214 214 213 212 214 216 217 216 216 216 216 216 216 217 216 216 218 219 218 216 215 214 213 214 216 219 222 225 228 227 228 232 234 234 234 234 235 236 236 236 236 238 242 245 244 241 242 243 245 246 246 244 243 245 248 249 249 249 250 250
245 230 197 171 138 133 138 145 112 126 224 289 89 168 252 316 298 253 278 295 264 253 238 245 245 239 231 226 231 229 225 226 227 231 224 216 216 213 214 214 213 217 219 217 217 217 217 217 216 216 217 217 217 217 218 216 215 214 214 214 215 214 216 221 225 228 227 227 229 231 233 234 235 236 237 237 237 237 239 243 245 243 240 241 245 248 248 248 246 245 249 252 251 251 246 246 251
231 224 170 141 130 148 159 157 149 181 209 336 28 131 213 288 276 262 303 300 282 282 258 254 246 239 233 228 232 230 224 220 219 226 224 219 217 214 215 216 215 218 219 218 217 218 217 217 217 216 216 218 218 217 217 217 215 215 216 217 218 219 221 224 226 227 228 229 229 230 232 234 235 236 236 237 237 238 239 240 242 241 239 239 244 249 250 250 247 247 255 255 251 248 246 249 253
230 195 156 150 151 159 155 145 142 92 113 297 304 132 184 264 276 296 340 293 285 286 260 253 246 240 237 233 233 231 225 220 216 220 220 218 217 217 219 218 218 220 219 218 218 218 218 218 217 217 218 218 218 217 218 218 218 218 218 219 220 222 223 226 227 227 228 229 231 232 232 233 234 235 235 236 237 237 237 238 239 241 240 240 246 250 250 251 248 249 257 257 252 250 249 254 254
205 137 115 94 84 86 101 122 116 77 126 240 248 197 187 267 280 297 316 260 262 268 263 257 249 241 238 235 235 234 230 225 224 227 227 225 222 221 222 222 222 222 221 220 220 219 219 218 217 218 219 219 219 219 218 219 219 218 219 220 221 223 223 224 226 227 227 228 231 233 232 232 233 233 235 235 235 235 237 239 240 242 243 244 248 249 250 253 251 253 260 260 257 253 251 255 257
136 106 84 68 52 45 48 65 97 132 251 250 239 210 194 259 275 246 229 223 218 231 260 272 270 264 250 241 242 239 233 229 228 235 240 238 235 232 228 226 226 225 222 222 221 220 219 218 218 219 221 221 220 220 219 220 219 219 221 222 222 223 223 222 223 224 225 226 229 232 233 233 233 234 236 236 236 237 239 241 240 242 246 247 248 248 249 250 248 250 257 259 258 253 250 261 268
128 102 98 93 16 15 26 1 42 197 247 258 250 217 187 228 260 242 233 245 227 214 238 261 267 273 267 258 253 241 232 228 223 229 237 239 240 236 229 228 229 226 223 222 221 220 219 218 218 219 221 222 221 221 220 221 220 220 222 223 224 225 223 222 223 224 225 225 228 232 233 233 233 234 235 236 237 238 240 242 241 245 248 246 245 246 247 247 249 255 259 259 256 250 253 268 268
137 118 129 139 29 37 208 265 256 224 246 262 263 218 210 233 248 250 253 259 249 225 220 238 254 269 280 277 266 254 241 230 223 224 228 227 228 224 221 223 224 222 222 222 221 220 219 219 218 219 221 221 221 222 222 222 222 223 224 225 226 227 225 225 225 226 227 227 229 231 231 231 231 232 233 236 238 238 239 241 242 245 245 243 246 250 252 254 257 259 257 254 249 250 262 269 261
151 145 155 168 159 163 206 226 253 248 255 279 271 241 254 269 258 247 243 246 250 244 229 232 246 261 274 278 276 278 269 240 226 226 225 223 223 219 217 218 219 219 221 220 220 219 219 219 219 220 223 223 222 223 223 223 224 225 226 226 227 227 227 227 228 228 230 231 232 232 232 233 233 234 235 236 239 240 240 241 243 245 245 246 250 252 251 252 252 252 252 251 252 260 267 265 258
183 162 149 167 169 170 200 201 193 225 256 288 269 227 199 196 244 244 236 248 265 270 254 243 256 268 278 288 285 282 277 257 237 232 230 227 225 221 221 221 219 220 220 219 219 219 219 219 220 221 224 224 224 224 224 224 225 225 226 227 227 228 229 230 230 231 232 234 235 234 235 236 238 241 242 242 243 241 241 243 246 247 246 247 249 248 246 246 247 249 251 253 256 260 261 258 260
221 138 135 187 184 153 159 186 174 165 171 255 224 232 213 206 273 274 247 257 275 277 274 270 271 279 302 302 279 265 264 265 258 250 247 246 239 229 226 224 223 222 220 218 218 218 218 220 221 223 225 226 225 226 225 226 226 226 226 227 228 229 230 230 230 231 232 234 236 237 238 240 243 245 246 247 246 243 243 245 249 250 247 246 248 250 250 246 245 247 250 252 253 254 255 257 259
172 132 185 211 163 129 132 201 135 105 177 248 204 252 290 316 295 295 310 302 289 280 275 269 265 280 305 286 265 261 263 263 261 255 254 258 255 246 237 230 226 224 221 220 219 219 220 220 221 223 225 226 226 227 227 228 228 228 229 229 230 230 230 230 231 232 233 234 237 239 241 243 245 246 247 248 247 247 247 249 251 252 249 245 245 248 251 249 248 250 252 254 256 256 257 258 259
140 179 204 177 109 109 119 171 10 82 218 266 274 230 278 309 271 310 342 328 293 276 274 283 277 268 267 259 255 256 256 260 266 262 260 261 255 251 246 239 234 230 229 228 227 225 224 224 224 224 225 226 227 229 229 229 229 229 229 229 229 230 231 232 234 235 236 236 237 239 241 243 246 248 249 249 248 249 250 251 252 253 252 249 247 248 251 252 252 254 255 256 258 259 259 260 262
154 195 190 127 153 201 139 171 190 181 215 274 305 258 251 210 217 284 288 261 261 266 286 303 277 241 234 249 259 264 265 269 273 267 261 260 255 251 244 239 238 236 235 236 234 232 229 227 227 227 228 229 229 229 229 229 229 229 230 230 230 231 232 233 234 235 236 237 239 241 243 246 249 250 249 247 247 248 249 250 251 252 252 252 251 251 252 252 252 254 255 256 257 257 258 261 263
86 80 107 101 152 179 177 170 162 170 203 242 292 291 252 219 210 223 248 259 253 243 268 281 259 235 224 237 254 268 274 272 273 269 264 262 257 248 238 235 238 238 239 240 238 236 233 231 230 230 231 231 230 229 229 229 229 229 230 230 231 231 232 233 234 235 237 239 241 243 246 249 252 250 245 244 247 248 249 249 249 249 250 250 250 251 251 251 252 253 255 257 259 260 261 263 265
155 159 183 199 81 122 163 179 135 139 178 191 242 273 257 236 203 193 218 250 249 229 234 254 253 241 238 246 260 274 283 281 279 272 265 266 258 247 239 236 238 238 239 239 238 239 238 235 234 233 233 232 231 231 230 230 230 229 229 229 230 232 233 234 235 236 238 240 243 245 248 251 251 248 245 246 248 248 248 248 247 247 249 249 251 252 253 252 253 255 259 262 264 263 264 266 268
169 179 191 186 147 125 172 223 203 112 178 179 181 254 259 240 199 197 207 230 241 224 214 242 268 263 258 269 267 265 275 278 282 275 261 259 256 247 238 231 231 231 232 233 234 236 236 235 234 234 233 233 233 232 231 231 231 229 230 231 232 233 234 235 235 236 238 241 243 246 248 247 247 247 245 244 245 244 244 244 245 247 249 251 253 254 255 256 258 261 263 264 264 263 264 266 267